Regional Weather Roundup
Issued by NWS Lake Charles, LA

Current Version | Previous Version | Text Only | Print | Product List | Glossary On
Versions: 1 2 3 4 5 6 7 8 9 10 11 12 13 14 15 16 17 18 19 20 21 22 23 24 25 26 27
000
ASUS44 KLCH 241710
RWRLCH
RWRLCH
REGIONAL WEATHER ROUNDUP
NATIONAL WEATHER SERVICE LAKE CHARLES LA
1200 PM CDT FRI OCT 24 2014

Note: "fair" indicates few or no clouds below 12,000 feet with no
significant weather and/or obstructions to visibility.


ACROSS SOUTHEAST TEXAS

CITY           SKY/WX    TMP DP  RH WIND       PRES   REMARKS
BEAUMONT       SUNNY     72  52  49 VRB6      30.16S
BEAUMONT CITY    N/A     70  49  48 NE8       30.17S
ORANGE         SUNNY     69  51  52 N6        30.18S
JASPER         SUNNY     69  49  50 N3        30.20F
$$

ACROSS CENTRAL LOUISIANA

CITY           SKY/WX    TMP DP  RH WIND       PRES   REMARKS
LEESVILLE      SUNNY     68  48  48 N9        30.16F
FULLERTON        N/A     72  48  42 VRB3      30.14F
ALEXANDRIA INT SUNNY     70  47  43 N5        30.15F
ESLER FIELD    SUNNY     68  48  48 VRB5      30.16F
DERIDDER         N/A     69  46  43 N5        30.18F
OAKDALE        SUNNY     69  49  50 CALM      30.16F
OPELOUSAS        N/A     67  51  57 N3        30.14F
$$

ACROSS SOUTHWEST AND SOUTH CENTRAL LOUISIANA

CITY           SKY/WX    TMP DP  RH WIND       PRES   REMARKS
SULPHUR        SUNNY     72  51  47 NE6       30.16F
LAKE CHARLES   SUNNY     70  50  49 NE9       30.15F
CHENNAULT INT  SUNNY     70  48  46 N6        30.15F
CAMERON PHI    SUNNY     68  52  56 N8G14     30.18S
DEQUINCY         N/A     68  50  53 CALM      30.16F
JENNINGS         N/A     67  51  56 N8        30.15S
LAFAYETTE      SUNNY     70  50  49 NE9       30.14F
NEW IBERIA     SUNNY     72  50  45 NE12      30.14F
ABBEVILLE        N/A     69  50  51 N6        30.14F
PATTERSON      SUNNY     72  52  49 NE8       30.14F
SALT POINT       N/A     72  50  45 VRB5      30.11F
$$

SELECTED SITES ACROSS THE REGION

CITY           SKY/WX    TMP DP  RH WIND       PRES   REMARKS
HOUSTON BUSH   SUNNY     71  52  50 CALM      30.17F
HOUSTON HOBBY  SUNNY     73  49  42 NE7       30.17S
GALVESTON      SUNNY     71  55  56 N10       30.17S
COLLEGE STAT   MOSUNNY   72  54  53 CALM      30.19S
CONROE         SUNNY     71  48  43 VRB3      30.19S
HUNTSVILLE     SUNNY     73  48  41 VRB3      30.19S
LUFKIN         SUNNY     73  51  46 E3        30.19F
SHREVEPORT     MOSUNNY   71  52  50 CALM      30.18F
MONROE         SUNNY     65  49  56 CALM      30.18F
NATCHEZ MS     SUNNY     66  48  52 N10       30.16F
BATON ROUGE    SUNNY     71  47  42 VRB6      30.13F
N.O. INTL ARPT MOSUNNY   71  50  47 N9        30.11F
SLIDELL        SUNNY     72  46  39 N5        30.09F
$$

MARINE REPORTS

STATION/POSITION TIME  TEMP    WIND        PRES    VSBY  WAVE
                       AIR SEA DIR/SP/G                  HT/PER
                 (UTC) (F)     (DEG/KT/KT) (MB)    (MI)  (FT/S)
BUOY 30 S HIGH I 1700   67 77   30/ 10/ 14 1020.9S         2/ 7
SEA RIM ST PARK  1700   67      40/  8/ 11 1021.7F
PORT ARTHUR      1700      74  100/  6/  9 1021.3S
SABINE PASS N    1700   67 72   40/  6/ 10 1021.3F
TEXAS POINT      1700   67 71   10/ 10/ 12 1021.3F
CALCASIEU PASS   1700   66 71   40/  7/ 12   N/A
LK CHARLES BEACH 1700   67 75              1021.1F
MARSH ISLAND     NOT AVBL
FRESH WATER LOCK 1700   67 72  350/  8/ 10 1020.4R
AMERADA PASS     1700   68 69   60/  3/  7 1019.7F
$$



USA.gov is the U.S. government's official web portal to all federal, state and local government web resources and services.